Orbital Elements at Epoch 2459000.5 (2020-May-31.0) TDB
Reference: JPL 25 (heliocentric ecliptic J2000)
Element | Value | Uncertainty (1-sigma) | Units |
e | .1190807348775474 | 4.2553e-08 | |
a | 2.15750307738415 | 7.3259e-09 | au |
q | 1.900586025428675 | 9.1792e-08 | au |
i | 3.211341881791323 | 4.1839e-06 | deg |
node | 43.75657413176329 | 6.5251e-05 | deg |
peri | 281.7534401040248 | 6.738e-05 | deg |
M | 211.5633961548248 | 1.7627e-05 | deg |
tp | 2459477.769928205564 (2021-Sep-20.26992821) | 5.711e-05 | TDB |
period | 1157.512161442434 3.17 | 5.8956e-06 1.614e-08 | d yr |
n | .3110118510991591 | 1.5841e-09 | deg/d |
Q | 2.414420129339625 | 8.1983e-09 | au |
|
| | Orbit Determination Parameters
Additional Information
|